User: anonymous   Login
Location: Maddington
(51.2000°N, 1.9167°W)
Time: 14:29:02
(UTC+00:00)
Language:

Resurs 01 Rocket - Orbit

View from above orbital plane
View from above orbital plane
View from above satellite
View from above satellite

Ground track
Ground track

The orbit data is extracted from the following two-line orbital elements,

1 23343U 94074B   20333.74532900  .00000083  00000-0  19087-4 0  9990
2 23343  97.9780  25.0989 0006565 353.3562  68.9695 14.76848445402874
Epoch (UTC): 28 November 2020 17:53:16
Eccentricity: 0.0006565
inclination: 97.9780°
perigee height: 634 km
apogee height: 644 km
right ascension of ascending node: 25.0989°
argument of perigee: 353.3562°
revolutions per day: 14.76848445
mean anomaly at epoch: 68.9695°
orbit number at epoch: 40287

The dashed part of the orbit path shows where the satellite is in the earth's shadow,  

DLR